Location: Unspecified
(0.0000°N, 0.0000°E)
Time: 09:21:02
(UTC+00:00)

Explorer 11/Cluster Stage 4 - Pass Details

Date: 18 July 2020
Orbit: 467 x 1259 km, 28.8° (Epoch: 03 August)

Event Time Altitude Azimuth Distance (km) Brightness Sun altitude
Rises 15:35:10 0° 310° (NW) 3,705 11.0 34.9°
Reaches altitude 10° 15:37:45 10° 315° (NW) 2,861 10.7 34.4°
Maximum altitude 15:44:49 56° 31° (NNE) 1,372 8.2 32.8°
Drops below altitude 10° 15:52:50 10° 108° (ESE) 3,221 9.3 30.9°
Sets 15:55:53 0° 112° (ESE) 4,200 9.8 30.2°
